Regional Weather Roundup
Issued by NWS Newport/Morehead, NC

Current Version | Previous Version | Text Only | Print | Product List | Glossary On
Versions: 1 2 3 4 5 6 7 8 9 10 11 12 13 14 15 16 17 18 19 20 21 22 23 24 25 26 27 28 29 30 31 32 33 34 35 36 37 38 39 40 41 42 43 44 45 46 47 48 49 50
000 ASUS42 KMHX 201310 RWRMHX WEATHER ROUNDUP FOR EASTERN NORTH CAROLINA NATIONAL WEATHER SERVICE NEWPORT/MOREHEAD CITY NC 900 AM EDT SAT SEP 20 2014 NOTE: "FAIR" INDICATES FEW OR NO CLOUDS BELOW 12,000 FEET WITH NO SIGNIFICANT WEATHER AND/OR OBSTRUCTIONS TO VISIBILITY NCZ015>017-031-032-045>047-102-103-201400- NORTH COAST CITY SKY/WX TMP DP RH WIND PRES REMARKS EDENTON PTSUNNY 67 66 94 N6 30.17S ELIZABETH CITY CLOUDY 72 68 87 NE12 30.18S KITTY HAWK CLOUDY 74 69 85 NE9G17 30.14S MANTEO CLOUDY 73 69 86 NE13G23 30.15F $$ NCZ045>047-081-094-103-104-201400- CENTRAL COAST CITY SKY/WX TMP DP RH WIND PRES REMARKS FRISCO LGT RAIN 70 70 100 NE8G17 30.11S FOG SWANQUARTER N/A 73 N/A N/A NE8G18 30.09S $$ NCZ095-097-098-100-101-201400- SOUTHERN COAST CITY SKY/WX TMP DP RH WIND PRES REMARKS BEAUFORT CLOUDY 73 68 84 NE10 30.11S CEDAR ISLAND N/A 73 N/A N/A VRB20G26 30.15S JACKSONVILLE CLOUDY 68 63 84 N8 30.12F NEWPORT NOT AVBL PINEY ISLAND CLOUDY 75 68 78 N15G23 30.11S WILMINGTON CLOUDY 68 63 84 NE13 30.11S $$ NCZ011>013-027>030-043-044-078>080-089-090>093-098-201400- COASTAL PLAIN CITY SKY/WX TMP DP RH WIND PRES REMARKS AHOSKIE MOSUNNY 63 59 89 N6 30.21F CLINTON CLOUDY 65 62 88 NE6 30.16S ELIZABETHTOWN CLOUDY 65 62 90 CALM 30.14S GOLDSBORO PTSUNNY 66 65 97 N1 30.16S GREENVILLE PTSUNNY 64 63 94 N6 30.19S HAVELOCK CLOUDY 72 66 81 NE10 30.13F KENANSVILLE CLOUDY 65 61 87 NE5 30.17R KINSTON PTSUNNY 66 63 88 N8 30.17S NEW BERN CLOUDY 71 65 81 N7 30.14F RICHLANDS CLOUDY 66 61 82 N14 30.13F ROANOKE RAPIDS NOT AVBL ROCKY MOUNT MOSUNNY 64 59 83 NE9 30.20S WASHINGTON CLOUDY 68 64 88 N10 30.16S WHITEVILLE CLOUDY 66 60 83 NE7 30.12F $$ AMZ130-135-150-152-154-156-158-170-250-252-270-ANZ085-086-088-633-658-670-201400- MARINE OBSERVATIONS STATION/POSITION TIME TEMP WIND PRES WAVE SWELL AIR SEA DIR/SP/G HT/PER HT/PER (UTC) (F) (DEG/KT/KT) (MB) (FT/S) (FT/S) CHESAPEAKE LIGHT 1200 71 60/ 25/ 26 1022.6 BUOY 44014 1300 74 77 40/ 19/ 21 1020.8 7/ 7 5/ 8 DUCK 1300 72 74 40/ 21/ 23 1020.6 2E DUCK 1300 N/A 6/ 6 2/11 OREGON INLET 1300 74 73 20/ 15/ 22 1020.4 BUOY 44095 1300 74 N/A 8/ 9 2/11 20E OREGON INLET NOT AVBL HATTERAS CG 1300 73 73 30/ 12/ 19 1019.8 DIAMOND BUOY 1300 79 80/ 21/ 25 1018.1 7/ 8 3/ 8 CAPE LOOKOUT 1200 72 20/ 13/ 16 1019.2 BEAUFORT LAB 1300 72 75 20/ 10/ 14 1018.9 30 SE NEW RIVER 1300 75 82 30/ 21/ 25 1018.6 6/ 6 5 SE WRIGHTSVILL 1200 71 80 40/ 21/ 25 N/A BUOY 41002 1213 74 82 60/ 12/ 16 1016.7 7/ 7 7/ 7 BUOY 41004 1300 81 82 60/ 19/ 25 1015.1 8/ 8 3/15 $$

USA.gov is the U.S. government's official web portal to all federal, state and local government web resources and services.